User: anonymous   Login
Location: Copeville
(33.0796°N, 96.4155°W)
Time: 22:53:01
(UTC+00:00)
Language:

TIGRISAT - Orbit

View from above orbital plane
View from above orbital plane
View from above satellite
View from above satellite

Ground track
Ground track

The orbit data is extracted from the following two-line orbital elements,

1 40043U 14033AK  23081.22522263  .00002671  00000-0  38441-3 0  9999
2 40043  97.6602 260.7002 0057579 337.0452  22.8186 14.76036130470882
Epoch (UTC): 22 March 2023 05:24:19
Eccentricity: 0.0057579
inclination: 97.6602°
perigee height: 601 km
apogee height: 682 km
right ascension of ascending node: 260.7002°
argument of perigee: 337.0452°
revolutions per day: 14.76036130
mean anomaly at epoch: 22.8186°
orbit number at epoch: 47088

The dashed part of the orbit path shows where the satellite is in the earth's shadow,  

DLR